Location: Kouchibouguac National Park
(46.8081°N, 64.9088°W)
Time: 08:50:23
(UTC-03:00)

Amateur Radio Satellites - All Passes

Search period start: 30 September 2014 08:20
Search period end: 01 October 2014 08:20
Location: Kouchibouguac National Park, 46.8081°N, 64.9088°W

Satellite Date Start Highest point End Downlink Frequencies (MHz)
Time Altitude Azimuth
HO-68 30 Sep 08:34:33 08:35:49 11° 82° (E) 08:37:04 435.675 MHz FM
AO-7 30 Sep 08:40:14 08:45:18 18° 318° (NW) 08:50:23 29.400 - 29.500 MHz
MaSat-1 30 Sep 08:47:34 08:49:53 13° 319° (NW) 08:52:08 437.345 MHz
SO-67 30 Sep 09:06:52 09:10:04 36° 289° (WNW) 09:13:15 435.3500 MHz FM
PCSat 30 Sep 09:17:44 09:21:09 17° 105° (ESE) 09:24:35 145.825 MHz
RS-15 30 Sep 09:24:55 09:34:51 36° 22° (NNE) 09:45:01 29.354 - 29.394 USB, Beacon 29.352 USB
JAS-2 30 Sep 09:49:21 09:51:34 12° 310° (NW) 09:53:51 435.800 - 435.900 CW/SSB, 435.910 FM
Oscar 11 30 Sep 09:58:59 10:01:18 14° 89° (E) 10:03:36 145.825 FM, Beacon 2401.500 USB
HO-68 30 Sep 10:17:54 10:25:01 60° 102° (ESE) 10:32:06 435.675 MHz FM
FUNcube-1 30 Sep 10:21:30 10:22:42 11° 86° (E) 10:23:54 145.950 - 145.970 MHz USB
UKube-1 30 Sep 10:26:15 10:30:11 32° 97° (E) 10:34:06 145.840 MHz, 145.915 MHz
Sapphire 30 Sep 10:32:51 10:38:10 63° 118° (ESE) 10:43:33 437.095 MHz 1200 baud AX-25 AFSK
PCSat 30 Sep 10:58:28 11:03:54 80° 304° (WNW) 11:09:22 145.825 MHz
ZACube-1 30 Sep 11:04:13 11:08:15 30° 95° (E) 11:12:11 437.345 MHz
Oscar 11 30 Sep 11:33:37 11:37:55 63° 287° (WNW) 11:42:11 145.825 FM, Beacon 2401.500 USB
RS-15 30 Sep 11:38:00 11:49:08 80° 51° (NE) 12:00:42 29.354 - 29.394 USB, Beacon 29.352 USB
FUNcube-1 30 Sep 11:55:09 11:59:46 87° 284° (WNW) 12:04:15 145.950 - 145.970 MHz USB
UKube-1 30 Sep 12:02:33 12:06:19 29° 294° (WNW) 12:10:04 145.840 MHz, 145.915 MHz
HO-68 30 Sep 12:06:09 12:12:21 33° 302° (WNW) 12:18:34 435.675 MHz FM
Sapphire 30 Sep 12:17:24 12:22:01 28° 319° (NW) 12:26:40 437.095 MHz 1200 baud AX-25 AFSK
Oscar 16 30 Sep 12:31:31 12:35:03 19° 58° (ENE) 12:38:35 437.025 USB, Beacon 2401.1428
ZACube-1 30 Sep 12:40:33 12:44:39 33° 293° (WNW) 12:48:40 437.345 MHz
AO-27 30 Sep 12:41:33 12:42:29 10° 51° (NE) 12:43:25 436.795 MHz FM
PCSat 30 Sep 12:44:16 12:48:11 20° 326° (NW) 12:52:08 145.825 MHz
AO-Echo 30 Sep 12:50:13 12:51:55 12° 55° (NE) 12:53:38 ?
JAS-1B 30 Sep 13:07:21 13:13:27 30° 62° (ENE) 13:18:49 435.800 - 435.900 CW/SSB
Oscar 19 30 Sep 13:27:55 13:32:55 51° 69° (ENE) 13:37:57 437.125 CW, 437.150 USB
TMSAT-1 30 Sep 13:30:16 13:31:27 11° 52° (NE) 13:32:38 436.925 FM
FUNcube-1 30 Sep 13:33:34 13:35:24 12° 303° (WNW) 13:37:14 145.950 - 145.970 MHz USB
ITAMSAT 1 30 Sep 13:38:28 13:42:54 30° 63° (ENE) 13:47:22 435.822 SSB
Uribyol 2 30 Sep 13:39:26 13:43:58 32° 64° (ENE) 13:48:33 436.500 FM
RS-15 30 Sep 13:51:07 14:00:31 33° 254° (WSW) 14:10:15 29.354 - 29.394 USB, Beacon 29.352 USB
Sapphire 30 Sep 14:06:43 14:07:25 10° 344° (NNW) 14:08:07 437.095 MHz 1200 baud AX-25 AFSK
AO-7 30 Sep 14:07:21 14:12:15 17° 41° (NE) 14:17:09 29.400 - 29.500 MHz
Oscar 16 30 Sep 14:08:40 14:13:51 73° 257° (WSW) 14:19:04 437.025 USB, Beacon 2401.1428
AO-27 30 Sep 14:15:52 14:20:58 61° 71° (ENE) 14:26:06 436.795 MHz FM
AO-Echo 30 Sep 14:25:14 14:29:55 81° 75° (ENE) 14:34:40 ?
Gurwin Techsat 1B 30 Sep 14:36:08 14:41:11 46° 68° (ENE) 14:46:15 435.225 FM
Saudisat 1A 30 Sep 14:47:54 14:52:02 41° 119° (ESE) 14:56:11 436.775 MHz
JAS-1B 30 Sep 14:56:26 15:03:54 57° 258° (WSW) 15:10:12 435.800 - 435.900 CW/SSB
TMSAT-1 30 Sep 15:05:07 15:10:19 61° 71° (ENE) 15:15:34 436.925 FM
Oscar 19 30 Sep 15:08:24 15:12:32 24° 267° (W) 15:16:42 437.125 CW, 437.150 USB
ITAMSAT 1 30 Sep 15:17:21 15:22:14 42° 262° (W) 15:27:11 435.822 SSB
Uribyol 2 30 Sep 15:18:31 15:23:21 39° 263° (W) 15:28:14 436.500 FM
MaSat-1 30 Sep 15:20:36 15:24:08 50° 56° (NE) 15:27:09 437.345 MHz
Uosat F 30 Sep 15:46:30 15:50:43 28° 63° (ENE) 15:54:57 435.120 FM
AO-7 30 Sep 15:55:20 16:03:25 60° 63° (ENE) 16:11:30 29.400 - 29.500 MHz
AO-27 30 Sep 15:57:11 16:00:54 20° 269° (W) 16:04:39 436.795 MHz FM
AO-Echo 30 Sep 16:07:28 16:09:21 12° 273° (W) 16:11:15 ?
Gurwin Techsat 1B 30 Sep 16:16:55 16:21:21 27° 267° (W) 16:25:49 435.225 FM
PCSat 30 Sep 16:18:43 16:20:10 11° 19° (NNE) 16:21:37 145.825 MHz
Saudisat 1A 30 Sep 16:27:46 16:31:42 31° 319° (NW) 16:35:41 436.775 MHz
JAS-2 30 Sep 16:35:05 16:38:13 16° 54° (NE) 16:41:28 435.800 - 435.900 CW/SSB, 435.910 FM
TMSAT-1 30 Sep 16:46:49 16:50:40 20° 269° (W) 16:54:33 436.925 FM
KITSAT 1 30 Sep 16:55:28 17:02:07 29° 107° (ESE) 17:08:46 435.175 FM
MaSat-1 30 Sep 16:59:15 16:59:55 11° 259° (W) 17:00:33 437.345 MHz
Hamsat 30 Sep 17:05:37 17:08:28 18° 62° (ENE) 17:11:19 145.90 MHz
Uosat F 30 Sep 17:24:36 17:29:19 42° 261° (W) 17:34:06 435.120 FM
OPAL 30 Sep 17:27:31 17:31:28 22° 94° (E) 17:35:21 ?
Sapphire 30 Sep 17:35:08 17:39:19 22° 37° (NE) 17:43:30 437.095 MHz 1200 baud AX-25 AFSK
AO-7 30 Sep 17:49:09 17:56:35 36° 264° (W) 18:04:04 29.400 - 29.500 MHz
PCSat 30 Sep 18:00:35 18:05:25 31° 43° (NE) 18:10:13 145.825 MHz
Saudisat 1A 30 Sep 18:12:01 18:12:40 10° 342° (NNW) 18:13:19 436.775 MHz
JAS-2 30 Sep 18:17:22 18:22:33 83° 256° (WSW) 18:28:04 435.800 - 435.900 CW/SSB, 435.910 FM
Hamsat 30 Sep 18:39:46 18:44:02 55° 260° (W) 18:48:17 145.90 MHz
KITSAT 1 30 Sep 18:48:45 18:56:50 75° 307° (NW) 19:04:58 435.175 FM
OPAL 30 Sep 19:05:41 19:10:41 54° 293° (WNW) 19:15:34 ?
HO-68 30 Sep 19:06:06 19:09:50 15° 45° (NE) 19:13:34 435.675 MHz FM
Sapphire 30 Sep 19:18:01 19:23:29 88° 238° (WSW) 19:28:55 437.095 MHz 1200 baud AX-25 AFSK
SO-50 30 Sep 19:36:16 19:40:03 27° 115° (ESE) 19:43:55 436.795 FM
Oscar 10/S400 30 Sep 19:36:24 19:57:35 51° 171° (S) 02:13:38 145.825 - 145.975 CW/USB, Beacon 145.810 USB
SO-67 30 Sep 19:41:54 19:45:21 73° 258° (WSW) 19:48:49 435.3500 MHz FM
PCSat 30 Sep 19:43:50 19:49:07 53° 244° (WSW) 19:54:22 145.825 MHz
STRAND 1 30 Sep 20:06:02 20:11:09 60° 101° (ESE) 20:16:14 ?
JAS-2 30 Sep 20:07:43 20:08:46 11° 277° (W) 20:09:49 435.800 - 435.900 CW/SSB, 435.910 FM
KITSAT 1 30 Sep 20:46:57 20:53:40 28° 333° (NNW) 21:00:25 435.175 FM
HO-68 30 Sep 20:49:10 20:56:09 60° 66° (ENE) 21:03:11 435.675 MHz FM
Oscar 11 30 Sep 20:56:51 20:59:44 18° 62° (ENE) 21:02:38 145.825 FM, Beacon 2401.500 USB
Sapphire 30 Sep 21:03:17 21:06:06 14° 257° (WSW) 21:08:54 437.095 MHz 1200 baud AX-25 AFSK
SO-50 30 Sep 21:16:03 21:20:24 45° 315° (NW) 21:24:53 436.795 FM
FUNcube-1 30 Sep 21:20:12 21:22:42 15° 59° (ENE) 21:25:13 145.950 - 145.970 MHz USB
UKube-1 30 Sep 21:24:25 21:28:28 40° 69° (ENE) 21:32:33 145.840 MHz, 145.915 MHz
Saudisat 1A 30 Sep 21:32:53 21:35:52 17° 31° (NNE) 21:38:51 436.775 MHz
STRAND 1 30 Sep 21:46:04 21:49:56 22° 300° (WNW) 21:53:47 ?
UOSAT-12 30 Sep 21:46:13 21:50:37 45° 120° (ESE) 21:55:08 437.025 FM, 437.400 FM
ZACube-1 30 Sep 22:03:16 22:07:23 35° 68° (ENE) 22:11:35 437.345 MHz
Oscar 11 30 Sep 22:31:14 22:35:31 56° 260° (W) 22:39:50 145.825 FM, Beacon 2401.500 USB
ISS 30 Sep 22:33:18 22:35:41 18° 137° (SE) 22:38:04 145.800 FM
HO-68 30 Sep 22:38:08 22:44:16 30° 266° (W) 22:50:27 435.675 MHz FM
KITSAT 1 30 Sep 22:46:43 22:52:14 19° 2° (N) 22:57:44 435.175 FM
FUNcube-1 30 Sep 22:53:54 22:58:27 79° 257° (WSW) 23:03:06 145.950 - 145.970 MHz USB
SO-50 30 Sep 22:59:50 23:02:09 14° 337° (NNW) 23:04:30 436.795 FM
UKube-1 30 Sep 23:01:27 23:04:50 22° 266° (W) 23:08:14 145.840 MHz, 145.915 MHz
Saudisat 1A 30 Sep 23:11:43 23:16:09 79° 52° (NE) 23:20:34 436.775 MHz
UOSAT-12 30 Sep 23:26:44 23:30:56 32° 320° (NW) 23:35:12 437.025 FM, 437.400 FM
ZACube-1 30 Sep 23:39:53 23:43:49 29° 266° (W) 23:47:50 437.345 MHz
ISS 01 Oct 00:08:42 00:12:02 83° 335° (NNW) 00:15:22 145.800 FM
KITSAT 1 01 Oct 00:43:33 00:50:37 31° 32° (NNE) 00:57:38 435.175 FM
Saudisat 1A 01 Oct 00:52:51 00:55:08 14° 250° (WSW) 00:57:25 436.775 MHz
UOSAT-12 01 Oct 01:10:59 01:12:33 11° 343° (NNW) 01:14:08 437.025 FM, 437.400 FM
Oscar 19 01 Oct 01:38:11 01:40:49 14° 88° (E) 01:43:25 437.125 CW, 437.150 USB
ISS 01 Oct 01:45:55 01:49:01 35° 354° (N) 01:52:08 145.800 FM
RS-15 01 Oct 02:06:20 02:15:50 36° 107° (ESE) 02:25:14 29.354 - 29.394 USB, Beacon 29.352 USB
Oscar 16 01 Oct 02:17:46 02:22:23 32° 96° (E) 02:26:57 437.025 USB, Beacon 2401.1428
SO-50 01 Oct 02:24:31 02:27:31 16° 27° (NNE) 02:30:31 436.795 FM
AO-27 01 Oct 02:27:03 02:30:28 17° 90° (E) 02:33:52 436.795 MHz FM
AO-Echo 01 Oct 02:29:43 02:33:34 22° 92° (E) 02:37:29 ?
JAS-1B 01 Oct 02:37:43 02:42:38 29° 95° (E) 02:47:49 435.800 - 435.900 CW/SSB
KITSAT 1 01 Oct 02:38:58 02:47:06 89° 56° (NE) 02:55:11 435.175 FM
Gurwin Techsat 1B 01 Oct 02:50:46 02:53:38 15° 88° (E) 02:56:29 435.225 FM
OPAL 01 Oct 03:11:08 03:11:54 10° 48° (NE) 03:12:40 ?
Oscar 19 01 Oct 03:15:39 03:20:50 83° 286° (WNW) 03:25:57 437.125 CW, 437.150 USB
TMSAT-1 01 Oct 03:18:53 03:22:40 19° 90° (E) 03:26:26 436.925 FM
ISS 01 Oct 03:22:57 03:26:10 44° 14° (NNE) 03:29:23 145.800 FM
ITAMSAT 1 01 Oct 03:26:51 03:32:00 56° 101° (E) 03:37:08 435.822 SSB
Uribyol 2 01 Oct 03:27:47 03:32:59 60° 101° (ESE) 03:38:08 436.500 FM
AO-7 01 Oct 03:55:57 03:59:52 14° 85° (E) 04:03:45 29.400 - 29.500 MHz
Oscar 16 01 Oct 03:57:03 04:01:47 37° 294° (WNW) 04:06:28 437.025 USB, Beacon 2401.1428
SO-50 01 Oct 04:04:17 04:09:03 59° 49° (NE) 04:13:51 436.795 FM
AO-27 01 Oct 04:05:17 04:10:30 70° 288° (WNW) 04:15:42 436.795 MHz FM
AO-Echo 01 Oct 04:07:46 04:12:38 53° 289° (WNW) 04:17:37 ?
RS-15 01 Oct 04:16:18 04:27:18 75° 311° (NW) 04:38:18 29.354 - 29.394 USB, Beacon 29.352 USB
JAS-1B 01 Oct 04:28:14 04:33:33 43° 293° (WNW) 04:39:09 435.800 - 435.900 CW/SSB
Gurwin Techsat 1B 01 Oct 04:28:56 04:34:17 83° 286° (WNW) 04:39:36 435.225 FM
UOSAT-12 01 Oct 04:33:27 04:36:59 20° 32° (NNE) 04:40:29 437.025 FM, 437.400 FM
KITSAT 1 01 Oct 04:35:38 04:41:29 23° 257° (WSW) 04:47:20 435.175 FM
OPAL 01 Oct 04:44:38 04:49:43 56° 68° (ENE) 04:54:49 ?
Oscar 19 01 Oct 04:56:49 04:59:23 14° 305° (NW) 05:01:55 437.125 CW, 437.150 USB
TMSAT-1 01 Oct 04:57:47 05:03:03 64° 289° (WNW) 05:08:17 436.925 FM
ISS 01 Oct 04:59:42 05:02:55 48° 213° (SSW) 05:06:08 145.800 FM
ITAMSAT 1 01 Oct 05:07:04 05:11:09 24° 299° (WNW) 05:15:13 435.822 SSB
Uribyol 2 01 Oct 05:08:05 05:12:02 22° 300° (WNW) 05:15:59 436.500 FM
MaSat-1 01 Oct 05:08:21 05:10:48 14° 103° (ESE) 05:13:13 437.345 MHz
JAS-2 01 Oct 05:23:40 05:26:50 14° 86° (E) 05:30:08 435.800 - 435.900 CW/SSB, 435.910 FM
Uosat F 01 Oct 05:29:00 05:33:52 47° 100° (E) 05:38:43 435.120 FM
SO-50 01 Oct 05:45:33 05:49:16 22° 247° (WSW) 05:53:00 436.795 FM
AO-7 01 Oct 05:45:57 05:54:14 67° 105° (ESE) 06:02:29 29.400 - 29.500 MHz
AO-27 01 Oct 05:47:08 05:49:05 12° 307° (NW) 05:51:03 436.795 MHz FM
STRAND 1 01 Oct 05:48:01 05:51:25 18° 58° (ENE) 05:54:50 ?
Gurwin Techsat 1B 01 Oct 06:10:39 06:13:27 15° 305° (NW) 06:16:15 435.225 FM
UOSAT-12 01 Oct 06:13:03 06:17:49 87° 53° (NE) 06:22:30 437.025 FM, 437.400 FM
Hamsat 01 Oct 06:23:14 06:26:27 21° 92° (E) 06:29:37 145.90 MHz
OPAL 01 Oct 06:24:54 06:28:55 22° 266° (W) 06:32:58 ?
RS-15 01 Oct 06:32:02 06:41:46 35° 341° (NNW) 06:51:37 29.354 - 29.394 USB, Beacon 29.352 USB
TMSAT-1 01 Oct 06:40:26 06:41:57 11° 308° (NW) 06:43:29 436.925 FM
MaSat-1 01 Oct 06:41:54 06:46:46 83° 299° (WNW) 06:51:20 437.345 MHz
JAS-2 01 Oct 07:06:12 07:12:47 71° 103° (ESE) 07:20:08 435.800 - 435.900 CW/SSB, 435.910 FM
Uosat F 01 Oct 07:08:18 07:12:25 26° 298° (WNW) 07:16:31 435.120 FM
STRAND 1 01 Oct 07:24:58 07:30:03 73° 257° (WSW) 07:35:11 ?
AO-7 01 Oct 07:39:21 07:46:32 34° 306° (NW) 07:53:42 29.400 - 29.500 MHz
UOSAT-12 01 Oct 07:54:56 07:57:16 14° 251° (WSW) 07:59:35 437.025 FM, 437.400 FM
Hamsat 01 Oct 07:58:38 08:02:34 39° 290° (WNW) 08:06:28 145.90 MHz
